Location: Pandora
(40.9481°N, 83.9611°W)
Time: 19:45:33
(UTC-04:00)

N. Korean satellite - Pass Details

Date: 27 September 2021
Orbit: 450 x 495 km, 97.3° (Epoch: 25 October)

Event Time Altitude Azimuth Distance (km) Brightness Sun altitude
Rises 06:26:37 0° 20° (NNE) 2,536 10.6 -12.5°
Reaches altitude 10° 06:28:46 10° 28° (NNE) 1,661 9.8 -12.1°
Maximum altitude 06:32:07 38° 98° (E) 759 8.2 -11.5°
Drops below altitude 10° 06:35:30 10° 168° (SSE) 1,670 9.4 -10.9°
Sets 06:37:40 0° 176° (S) 2,551 10.2 -10.4°
